Simultaneous Nadir Overpasses (SNOs) Predictions

Prediction of SNOs between GOES-17 and METOP-B Satellite Orbit:

Table of predicted SNOs for the next 14.0 days since TLE Epoch: 11/28/2020
Index Date Time (GOES-17) GOES-17 Lat,Lon METOP-B Lat,Lon Distance(km) Time Diff (sec)
1 11/29/2020 18:49:09 -0.04,-137.25 0.42,-139.33 237.40 80
2 11/30/2020 18:28:30 -0.04,-137.25 -0.68,-134.33 331.82 80
3 12/02/2020 06:47:30 0.04,-137.24 -0.34,-138.93 192.55 80
4 12/03/2020 06:24:11 0.03,-137.23 0.76,-133.93 376.08 80
5 12/04/2020 18:43:03 -0.03,-137.23 0.27,-138.49 144.13 80
6 12/05/2020 18:25:03 -0.03,-137.22 -0.83,-133.49 424.20 80
7 12/07/2020 06:44:04 0.02,-137.20 -0.19,-138.09 101.43 80
8 12/08/2020 06:20:44 0.02,-137.19 0.91,-133.09 466.48 80
9 12/09/2020 18:39:37 -0.02,-137.17 0.10,-137.65 54.84 80
10 12/12/2020 06:40:37 0.01,-137.13 -0.02,-137.25 13.90 80
